Wind_Speed
43 44 44 44 44 44 45 45 46 47 48 49 50 50 50 51 51 52 52 52 52 52 52 53 55 55 54 55 57 59 59 57 57 56 54 54 55 56 57 57 57 57 57 57 57 57 57 58 59 59 58 58 57 57 57 57 57 58 58 58 59 60 60 61 60 57 54 55 55 54 53 53 53 52 51 51 53 54 55 56 57 58 59 59 59
43 44 44 45 45 45 45 45 46 47 48 49 50 51 51 51 52 52 52 52 52 52 51 52 55 56 55 55 57 59 59 58 57 56 54 54 55 57 58 58 57 57 57 57 57 57 57 58 58 59 58 57 57 57 57 58 58 58 59 59 60 61 62 61 61 59 55 52 53 53 53 53 52 52 52 51 52 53 54 55 57 58 60 60 61
44 44 45 45 46 46 46 47 48 49 49 50 51 52 52 52 53 53 52 53 53 52 51 52 54 56 55 55 57 59 59 58 58 56 54 54 56 57 58 58 57 58 58 58 57 56 56 57 58 58 58 57 57 57 57 58 59 59 59 60 60 61 63 63 62 61 56 51 51 52 52 51 51 51 52 52 52 53 53 54 56 58 60 61 62
45 46 47 48 48 48 48 48 49 50 50 51 52 53 52 53 53 53 53 53 53 52 51 51 54 56 55 55 58 60 58 58 58 56 54 55 56 58 59 58 57 58 58 57 57 56 56 56 57 58 58 57 57 57 58 58 59 59 59 59 60 61 62 63 63 61 57 52 51 52 52 51 50 52 52 52 52 53 54 55 56 57 59 61 63
48 48 49 50 49 48 48 49 50 51 52 53 53 53 53 53 53 53 54 53 53 52 50 51 54 55 54 55 59 59 58 58 57 55 54 55 57 58 59 58 57 57 57 57 56 55 55 56 57 57 57 57 57 57 58 58 59 59 59 60 61 62 62 63 63 61 58 53 51 51 51 51 50 52 53 52 51 52 54 56 57 58 59 60 63
49 50 50 50 49 48 49 50 51 53 53 54 54 54 53 53 53 54 54 53 53 51 50 52 54 54 53 55 58 58 57 58 57 54 54 55 57 58 58 58 57 57 56 56 55 55 55 55 56 57 57 57 57 57 58 59 59 59 59 60 61 62 62 63 62 60 57 53 53 52 51 51 51 51 54 54 53 53 54 55 57 59 60 60 62
50 50 50 50 49 49 50 52 54 55 55 56 55 54 54 53 54 55 54 54 52 50 51 52 54 53 53 55 57 56 56 58 56 53 54 56 57 58 58 58 56 56 56 55 55 54 55 55 56 56 57 57 57 57 58 59 59 60 60 60 61 61 62 62 62 60 56 53 53 53 52 51 52 53 54 55 55 56 57 56 56 58 60 61 63
50 50 50 50 50 51 52 55 56 57 57 57 56 55 55 55 56 56 54 53 51 50 51 52 53 54 54 55 56 55 56 58 55 53 54 56 57 58 58 57 56 55 55 55 54 54 54 55 55 56 56 57 56 57 58 59 59 60 60 61 61 61 61 61 61 59 56 53 53 54 53 52 53 54 55 56 56 57 59 60 59 59 60 61 64
51 52 53 53 53 53 55 57 58 59 58 57 57 57 57 57 57 55 54 52 50 50 51 52 53 54 54 55 55 54 56 58 54 53 54 56 57 58 58 57 55 54 55 54 54 54 54 54 55 55 56 56 56 57 58 59 59 59 60 61 61 61 61 61 61 59 56 54 53 54 54 54 55 55 56 56 57 58 60 61 62 62 62 62 65
55 56 55 55 55 55 56 57 58 58 57 57 57 57 57 57 56 54 53 51 50 50 51 52 53 53 53 55 55 55 57 57 53 53 55 56 57 58 57 56 54 53 54 54 53 53 53 53 54 55 56 56 56 57 58 59 59 59 60 61 61 62 61 61 61 60 57 55 54 55 55 55 56 57 57 58 59 60 61 63 63 63 64 63 64
55 54 53 53 54 54 54 55 55 55 54 54 54 55 56 56 55 53 51 50 50 51 51 53 53 52 54 56 55 55 56 55 52 53 55 56 57 57 56 55 53 53 53 54 54 53 53 54 54 55 55 55 56 57 58 58 59 59 60 61 62 62 62 62 61 60 59 56 55 56 57 56 57 59 59 59 60 61 63 64 65 65 66 66 66
50 49 49 51 52 51 52 53 52 51 50 51 52 54 55 55 52 51 50 49 50 51 52 53 51 52 55 56 55 55 56 53 52 54 55 56 57 56 55 54 52 52 53 53 53 53 53 53 54 54 55 55 56 57 58 58 58 59 60 61 62 63 63 63 62 61 60 58 56 57 58 58 58 60 61 60 61 62 63 65 66 67 67 68 70
48 48 49 50 51 51 52 52 50 48 48 49 51 52 52 51 49 50 50 50 51 51 52 52 51 52 56 56 54 56 55 52 53 54 55 56 56 55 54 53 51 52 52 53 53 53 52 53 53 54 54 55 55 56 57 57 57 58 59 60 62 63 64 64 63 63 61 59 58 58 59 60 60 61 63 63 63 63 64 65 67 67 68 70 71
48 48 49 51 52 52 52 50 48 47 46 47 48 48 48 47 48 50 50 50 51 52 52 52 51 54 57 56 55 56 53 52 53 55 55 56 55 54 53 51 51 51 51 52 53 52 52 52 52 53 53 54 55 56 56 56 57 58 59 60 62 63 64 64 64 63 62 61 60 59 60 62 62 62 64 65 65 66 65 66 67 68 69 71 73
49 49 50 51 52 52 51 50 48 48 47 47 46 45 45 47 49 49 50 50 51 52 52 52 52 55 57 55 55 55 52 52 54 55 55 55 54 53 52 50 50 50 51 52 52 52 52 52 52 52 53 54 55 55 56 56 57 58 59 61 62 63 64 64 64 64 63 62 61 61 61 63 64 64 65 66 66 67 68 69 70 71 71 72 73
53 51 50 51 52 52 52 52 51 51 49 48 46 46 46 47 49 49 50 51 52 53 52 51 53 57 57 55 55 53 51 52 54 54 55 54 53 52 51 50 49 49 50 52 52 52 52 51 51 52 53 54 55 56 56 56 57 58 59 61 62 62 63 64 64 64 64 63 63 62 62 63 64 65 66 68 69 70 70 71 73 74 74 73 73
55 54 52 52 52 53 54 54 54 54 51 49 48 48 48 48 49 50 50 51 53 53 51 51 54 57 56 55 53 51 51 53 54 54 54 53 52 51 49 49 49 49 51 52 52 52 51 51 51 52 53 54 55 56 56 57 58 59 60 61 61 61 62 62 63 64 64 64 63 63 64 65 66 67 69 70 72 72 73 73 74 75 75 75 74
55 55 55 54 55 55 55 55 55 54 52 50 49 49 49 50 51 51 52 53 53 52 50 51 54 56 55 54 52 50 51 53 53 54 54 52 50 49 49 49 49 49 51 52 52 51 51 51 51 52 53 54 55 56 57 58 59 60 61 61 61 61 61 61 62 62 62 62 63 63 65 66 68 69 70 71 73 75 75 75 76 76 76 76 76
54 54 54 54 54 54 55 55 55 54 54 52 51 50 51 52 52 53 54 54 52 50 49 51 55 56 54 52 50 50 52 53 53 53 52 50 49 48 48 48 49 49 50 52 52 51 50 51 52 53 53 55 55 56 57 58 59 60 61 62 61 62 62 62 62 61 61 61 61 62 65 67 68 70 71 72 73 75 76 77 77 77 77 77 77
51 51 50 50 51 52 54 53 53 53 54 53 53 53 53 53 54 54 53 51 50 48 48 51 54 54 52 50 50 50 52 52 52 52 51 48 47 47 48 48 48 49 50 51 51 50 50 51 52 53 54 55 55 56 57 59 60 61 62 63 63 62 62 63 63 62 61 60 61 62 65 67 68 70 71 72 73 75 76 77 78 78 79 78 78
46 46 47 47 48 49 50 50 50 51 53 54 54 54 53 53 54 52 50 49 48 46 46 50 53 51 49 48 49 50 51 51 51 51 49 47 46 47 48 48 48 49 50 50 50 49 49 51 52 53 53 54 55 55 57 59 60 61 63 64 64 64 64 63 63 63 62 61 62 63 66 67 69 70 72 73 74 76 77 78 79 79 80 80 79
42 42 43 44 44 45 46 48 49 50 51 51 50 50 50 51 51 49 49 49 45 43 45 50 50 48 47 47 48 49 50 50 50 49 47 46 46 46 47 47 47 49 49 49 48 48 49 50 51 52 53 54 55 56 58 60 61 62 63 64 65 65 65 65 64 64 63 63 64 65 67 68 70 71 73 74 76 77 78 79 80 80 81 82 82
39 39 39 39 40 42 43 45 46 46 46 46 45 46 48 49 49 49 48 45 40 41 45 47 46 45 46 46 47 48 49 50 49 48 46 46 45 46 47 47 48 48 48 48 48 47 48 50 51 51 53 54 55 56 58 60 61 62 64 65 65 66 66 66 66 65 65 65 65 66 68 70 71 72 74 76 77 78 79 79 80 81 81 82 82
37 36 36 37 37 38 40 42 43 43 43 44 45 46 48 48 48 46 41 37 37 41 44 43 42 44 45 45 46 47 48 49 48 47 46 45 45 46 47 47 48 48 47 47 47 47 48 49 50 51 52 53 55 56 58 60 61 63 65 65 66 67 67 67 67 67 66 66 66 68 69 71 73 74 76 78 79 79 80 80 80 80 81 81 80
36 35 35 35 36 37 38 39 41 43 44 45 47 47 46 44 41 36 32 32 36 40 40 40 41 42 43 44 46 47 47 48 47 46 45 45 45 46 46 47 48 48 47 46 46 47 48 48 49 50 52 53 55 56 57 59 61 63 65 66 67 67 68 68 68 67 67 67 68 69 71 73 75 77 78 80 80 81 81 80 80 81 81 81 78
35 35 35 36 36 37 37 38 39 40 41 43 43 41 39 35 31 28 28 32 36 37 37 38 40 41 43 44 45 46 47 47 46 45 45 45 45 46 46 47 48 47 46 46 46 46 47 48 48 50 52 53 55 56 58 59 61 64 65 66 67 68 68 69 69 68 67 68 69 71 73 75 77 79 81 82 83 83 82 81 80 81 82 80 76
34 34 35 36 37 37 38 38 38 37 37 37 37 35 32 28 26 25 28 31 34 35 36 37 39 41 42 43 44 46 47 46 45 44 44 45 45 46 46 47 47 47 46 45 45 46 47 47 48 50 52 53 55 57 58 60 62 64 65 66 67 68 68 69 69 69 69 70 71 73 75 77 79 81 82 84 84 84 83 83 83 83 82 79 76
34 34 34 35 36 35 35 36 36 36 35 34 32 30 28 25 23 24 27 31 32 33 34 36 38 40 42 43 44 45 46 46 45 44 44 45 45 45 46 47 47 47 46 45 44 45 46 47 48 50 52 53 55 57 59 60 62 63 64 66 67 68 69 69 69 69 70 72 74 76 77 79 81 83 84 85 85 85 85 85 85 84 82 79 76
33 34 34 35 34 33 32 32 33 34 34 33 31 28 25 22 22 25 28 30 31 32 34 36 38 40 42 43 44 45 45 45 44 44 44 44 44 45 46 46 47 46 45 44 43 45 46 47 48 50 52 53 55 57 58 60 62 63 64 66 67 68 69 69 69 70 72 74 76 78 80 82 84 85 86 86 86 86 88 88 86 84 82 80 78
33 33 33 34 33 32 31 31 31 32 33 32 31 28 24 23 24 27 28 29 30 31 34 36 38 40 42 43 43 44 45 45 44 44 44 44 44 45 45 46 46 46 44 43 43 44 46 47 48 50 52 53 55 57 59 60 62 63 64 65 67 68 68 68 69 71 73 75 78 80 82 84 86 87 87 87 87 88 89 88 86 84 83 82 81
33 31 31 31 32 31 31 31 31 31 31 31 30 28 26 26 26 27 28 29 30 32 34 36 38 40 41 42 43 44 45 44 43 43 43 43 44 44 45 45 45 45 43 42 43 44 45 46 48 50 52 54 56 58 59 61 62 62 63 65 66 67 67 68 70 72 74 77 80 82 85 87 87 88 88 89 90 90 89 87 87 86 85 85 83
36 34 31 29 29 29 29 29 30 31 31 30 29 27 26 26 26 27 28 29 31 32 34 36 37 39 40 41 42 44 44 43 42 42 42 43 44 44 44 45 44 43 42 42 43 44 45 46 48 50 52 54 56 58 60 61 62 63 64 64 65 66 67 69 71 73 76 79 81 84 86 88 88 89 91 91 91 90 89 89 89 88 86 84 82
38 37 34 31 29 28 27 27 27 29 30 30 28 26 25 25 26 28 29 30 31 33 34 35 37 38 39 40 42 44 43 42 41 41 42 42 43 44 44 44 43 42 42 41 42 44 45 46 48 51 52 54 56 58 60 60 61 63 63 64 64 65 67 70 72 75 78 81 84 86 87 89 91 92 92 92 92 92 92 91 89 87 85 82 79
37 36 35 33 31 30 28 26 26 27 28 27 26 25 26 27 28 29 30 31 32 33 34 35 37 37 38 41 42 43 42 41 40 41 41 42 43 43 43 42 42 41 41 41 42 43 45 47 49 51 53 55 57 58 59 60 61 62 62 63 64 65 68 71 74 77 80 83 85 87 89 91 92 93 92 93 93 93 92 90 88 86 82 78 73
37 36 36 34 32 30 28 27 27 27 26 26 26 27 28 29 30 31 32 32 32 33 34 35 36 37 39 41 42 41 40 39 39 40 41 42 43 42 42 41 41 40 40 41 42 43 45 47 49 51 53 55 56 57 58 59 60 61 61 62 64 66 69 72 75 78 82 84 86 88 91 92 92 93 94 94 94 92 90 88 85 81 76 71 65
37 38 37 34 31 29 27 26 26 27 27 28 29 30 30 31 31 32 31 31 31 33 35 35 36 37 39 41 40 39 38 38 39 40 41 42 42 41 40 40 40 40 40 41 42 43 45 47 49 51 53 54 55 57 58 59 59 59 60 62 65 67 70 73 77 80 82 85 87 90 91 91 93 94 95 93 92 90 88 84 79 74 68 62 57
36 38 38 34 30 28 27 26 26 26 26 27 27 28 28 29 30 30 30 30 31 33 35 36 36 38 39 40 39 37 37 38 39 40 41 41 41 40 39 39 39 39 40 41 42 43 45 47 49 50 52 54 55 56 57 57 57 58 60 63 66 68 71 75 78 81 83 86 88 89 91 93 94 95 93 91 89 87 82 77 71 65 59 54 50
35 36 38 36 31 27 27 27 26 26 26 25 25 25 25 27 28 29 29 29 32 34 35 35 36 38 39 38 37 36 37 38 39 41 41 41 39 39 38 38 38 38 39 41 42 43 45 47 49 50 52 53 54 55 55 55 56 57 60 63 66 70 73 76 79 82 85 87 88 90 92 94 94 93 91 89 85 80 75 69 63 57 52 48 43
32 34 36 37 34 29 27 27 27 26 25 25 25 25 26 27 28 28 29 30 32 34 34 34 36 38 38 36 35 36 37 38 40 41 40 39 38 38 37 37 37 38 39 40 42 43 44 46 48 50 51 52 53 53 53 53 55 58 61 64 67 70 74 77 80 83 85 86 88 91 93 93 92 90 87 83 78 73 68 62 56 50 45 41 37
32 32 33 35 36 33 28 27 27 26 25 24 25 26 26 27 28 28 29 31 32 32 33 34 36 37 36 35 35 36 37 38 40 40 39 38 37 37 36 36 36 37 38 40 41 42 44 46 47 48 50 51 51 51 51 53 55 58 61 64 68 71 74 78 81 82 84 86 89 92 92 90 88 86 82 76 71 66 61 55 49 44 40 35 30
33 33 32 33 35 36 32 28 27 27 27 25 25 25 26 26 27 28 29 30 30 31 32 34 36 36 35 34 34 36 37 38 39 38 37 37 36 36 35 35 36 37 38 39 40 42 43 45 46 47 48 49 49 49 50 53 55 58 61 65 68 72 75 78 80 81 83 87 90 91 89 87 84 80 75 69 64 59 53 48 43 38 34 29 25
34 33 32 31 32 35 36 31 27 27 28 26 24 25 26 26 26 27 27 28 29 31 32 34 35 34 34 34 34 35 37 38 37 37 36 36 35 35 34 35 35 36 37 39 40 41 42 43 45 46 47 47 47 48 50 53 56 59 62 66 69 72 75 77 78 80 83 87 89 88 85 82 78 73 68 62 57 51 46 41 37 32 29 26 26
33 32 31 29 30 32 36 35 29 27 27 27 26 25 26 25 25 25 26 27 29 31 32 33 33 33 33 33 34 35 36 36 36 35 35 34 34 34 34 34 35 36 37 38 39 40 41 42 44 45 45 45 46 48 50 53 56 59 62 66 69 73 75 75 76 79 84 86 86 83 80 76 71 66 61 55 50 44 40 36 32 30 29 28 28
31 30 29 29 28 29 34 37 32 27 26 27 27 25 24 24 24 25 26 27 29 30 32 32 32 31 32 33 34 34 35 35 34 34 33 33 33 33 34 34 34 35 36 37 38 39 40 41 43 43 44 44 45 48 50 53 56 59 63 66 70 72 72 72 75 79 83 84 81 78 74 70 65 60 54 49 44 39 35 33 31 31 31 30 30
28 28 28 28 27 27 32 37 34 28 26 26 26 24 24 24 24 25 26 27 28 30 31 31 31 31 31 32 33 34 34 33 32 32 32 32 33 33 33 33 34 34 35 36 37 38 39 40 41 41 42 43 45 48 50 53 56 60 63 66 69 70 69 70 74 79 81 80 77 72 68 63 58 53 48 43 39 36 34 33 33 33 32 31 31
27 27 28 28 27 27 31 35 33 28 26 26 25 24 24 24 24 25 26 26 28 29 30 30 30 30 31 31 32 32 32 31 31 31 31 32 33 33 32 32 33 34 35 35 36 37 38 39 39 40 41 42 45 47 50 53 56 60 63 66 68 67 67 69 74 77 78 75 71 66 62 57 52 48 44 40 38 36 35 35 34 33 33 32 32
26 27 28 28 26 26 30 33 31 27 26 25 24 23 23 24 24 25 25 26 28 29 29 28 29 29 30 31 31 30 30 29 29 29 31 32 33 32 31 31 32 33 34 35 35 36 37 37 38 38 40 42 44 47 50 53 56 59 62 65 65 64 64 68 72 74 73 70 65 60 56 51 47 44 41 39 37 36 36 35 34 33 33 32 32
26 27 27 27 25 26 28 30 29 27 25 24 22 22 23 24 24 24 25 26 27 27 27 27 28 28 29 30 29 28 27 27 28 29 31 32 32 31 30 31 32 33 33 34 35 35 36 36 36 37 39 41 44 46 49 53 56 58 61 63 62 61 62 66 69 70 68 64 59 55 51 47 43 41 40 39 38 37 36 35 34 34 33 32 31
26 27 27 26 24 24 25 26 26 26 24 23 22 23 23 23 23 24 25 26 26 26 26 27 27 27 28 28 27 26 26 26 27 29 31 31 30 29 29 30 31 32 32 33 33 34 34 34 35 37 39 41 44 46 49 52 55 57 60 61 59 57 59 63 65 65 62 59 55 51 47 44 42 40 39 38 37 36 35 35 34 34 33 32 31
26 27 27 25 22 21 22 23 24 24 23 23 23 23 23 22 23 23 24 25 25 25 25 26 26 26 26 25 25 24 25 26 28 30 31 30 29 28 29 30 30 31 31 32 32 32 33 33 35 36 38 41 43 46 49 51 54 56 59 59 55 54 56 59 60 60 57 54 51 47 45 42 41 39 38 37 36 36 35 35 34 34 33 32 32
26 27 26 23 20 19 20 21 22 21 22 23 23 22 21 22 22 23 24 24 24 24 24 25 25 25 24 23 23 23 24 26 29 30 29 28 27 28 28 29 30 30 31 31 31 31 32 33 34 36 38 40 43 45 48 50 53 55 57 56 52 50 52 55 55 54 53 51 48 46 43 41 40 38 37 37 36 35 35 35 34 34 33 33 32
Wind_Direction
271 273 275 276 276 277 278 279 279 280 281 282 283 285 286 286 287 290 293 295 296 298 300 302 305 307 309 310 311 313 315 315 315 316 316 318 319 319 319 319 318 318 317 318 318 319 319 319 320 320 321 321 322 323 324 326 328 330 330 332 332 333 333 333 334 334 330 327 327 328 329 329 328 328 330 330 329 329 330 330 330 329 329 329 328
271 272 274 275 276 277 279 279 280 281 281 282 283 284 284 285 286 289 292 294 295 297 299 301 303 305 307 309 310 312 313 313 314 315 315 317 318 318 318 318 318 317 316 317 318 318 319 319 320 320 320 321 322 323 324 326 329 330 331 332 333 332 333 333 333 334 333 329 327 327 328 329 328 327 329 330 330 330 330 330 330 329 328 328 327
272 273 274 275 276 277 279 280 280 280 281 281 281 282 282 284 285 288 291 293 294 296 298 300 300 302 306 307 309 311 312 312 313 314 314 316 317 317 318 317 317 316 316 316 317 318 319 319 319 320 320 321 322 322 324 327 329 330 331 332 333 332 332 333 333 333 333 330 327 327 328 328 327 327 328 330 330 330 330 329 329 329 328 327 327
273 274 275 275 277 278 279 280 280 280 280 280 279 280 281 282 284 287 290 291 293 295 297 298 297 300 305 307 307 309 310 311 312 313 313 315 317 317 317 316 316 315 315 316 317 318 319 319 319 319 320 321 322 322 324 327 328 330 332 332 332 332 332 332 332 332 332 331 329 327 327 328 328 327 328 330 331 330 329 330 329 329 329 328 327
273 274 275 276 278 279 279 280 280 279 279 278 278 279 280 281 284 286 288 290 292 294 296 296 296 300 305 305 305 307 309 310 311 312 312 315 316 316 316 315 315 315 315 315 316 317 318 319 318 319 320 321 321 322 324 326 328 330 331 332 332 332 332 332 332 331 330 330 330 328 327 328 328 327 327 329 330 330 329 330 330 329 330 330 328
273 274 275 276 278 278 279 279 279 278 277 276 276 277 278 280 283 285 287 289 290 293 294 294 296 301 304 304 304 304 307 310 311 311 312 314 315 315 315 314 314 314 314 315 316 317 318 318 318 319 320 320 321 322 324 326 328 329 331 332 332 332 332 332 331 331 330 329 329 329 328 327 328 327 327 329 330 329 329 331 331 330 331 331 329
272 273 274 276 277 277 278 278 278 277 276 275 275 275 277 280 282 284 285 287 289 292 293 293 296 300 302 303 302 302 306 310 310 310 312 314 315 314 313 313 313 314 314 314 315 317 318 318 318 319 319 320 320 322 325 326 328 329 331 332 332 332 331 331 331 330 329 328 328 328 328 328 327 328 328 329 330 330 329 331 332 331 331 331 329
270 272 273 274 275 276 277 277 276 275 274 273 274 275 277 280 281 282 284 286 289 291 292 292 295 299 301 301 300 301 306 309 309 309 311 314 314 313 312 312 313 313 313 314 315 317 317 318 318 319 319 319 320 323 325 326 328 329 331 331 331 331 331 331 330 329 328 328 327 328 329 328 327 328 329 329 330 330 330 331 332 333 333 332 330
270 271 272 272 273 274 274 274 273 272 272 272 273 275 277 279 280 281 283 286 288 290 291 291 293 297 301 300 298 300 306 308 308 309 312 314 314 312 311 311 312 313 313 314 315 316 317 318 318 318 318 319 321 323 325 326 328 329 330 330 330 330 330 330 330 329 329 328 327 327 329 328 327 328 329 330 330 330 331 332 333 333 334 334 333
270 271 271 271 271 270 271 272 273 273 273 273 273 275 276 277 279 280 282 285 287 290 290 290 292 298 301 298 297 300 305 307 307 309 312 313 312 311 310 311 312 312 313 314 315 316 317 317 318 317 318 319 321 324 325 326 328 329 329 329 329 329 330 330 330 330 329 329 328 327 328 329 328 328 329 330 331 331 332 332 333 333 334 335 334
270 270 270 269 269 269 272 274 275 275 275 274 274 275 275 276 278 280 282 284 287 289 289 289 293 299 299 296 295 300 305 306 306 309 312 313 311 310 310 311 311 312 313 314 315 316 316 316 317 317 318 320 322 324 325 326 327 329 329 328 328 329 329 330 330 330 330 329 328 327 328 329 328 328 329 331 331 332 332 332 333 334 334 334 335
269 269 269 270 271 273 275 276 277 278 277 276 275 275 275 276 277 280 282 284 287 288 287 290 296 299 296 293 295 300 305 305 306 309 311 311 310 309 309 310 311 312 313 314 315 315 316 315 316 317 318 320 322 323 324 325 327 328 328 328 328 328 329 330 331 331 330 330 329 328 327 328 329 328 329 331 331 332 333 333 333 334 335 334 334
269 269 269 270 272 273 275 277 278 279 278 278 276 275 275 276 277 279 281 284 287 287 287 292 297 297 294 292 295 301 304 304 306 309 311 310 309 308 309 310 311 312 313 314 314 315 315 314 315 316 318 321 322 323 324 325 327 328 328 328 328 329 330 331 332 331 330 329 329 328 327 328 330 329 329 330 331 332 333 333 332 333 334 334 334
270 270 270 271 271 272 275 278 279 279 278 277 275 274 275 276 277 279 281 285 287 286 288 294 297 295 292 291 296 302 303 303 307 309 310 309 308 308 309 310 311 312 313 314 314 314 314 314 314 316 319 321 322 322 323 325 326 327 328 328 328 330 331 332 332 331 330 329 328 328 328 328 330 330 329 330 331 331 332 331 331 332 334 334 335
269 269 270 271 272 274 276 278 278 277 276 274 273 273 275 275 277 278 281 284 286 286 289 293 294 292 291 291 297 301 302 304 307 308 309 308 307 307 309 309 311 313 313 313 313 313 313 313 314 317 319 320 321 321 322 325 326 327 328 328 329 330 331 332 332 331 330 329 328 328 328 329 329 329 329 329 329 330 331 331 331 332 334 335 336
269 269 269 270 272 274 275 276 276 276 275 274 273 273 273 274 275 277 280 283 285 286 288 290 291 290 289 292 298 301 301 304 306 308 308 308 307 307 308 310 311 313 312 312 312 312 312 313 314 317 319 319 320 320 322 325 326 327 328 329 330 331 331 331 331 330 330 329 328 328 328 328 328 328 328 328 329 330 331 331 331 332 333 334 335
269 269 268 269 270 271 273 274 274 274 274 273 272 272 272 273 274 276 279 282 284 285 287 289 289 288 289 293 298 300 301 304 306 307 308 307 306 307 308 310 312 312 312 311 311 311 312 313 315 317 318 318 319 320 323 325 326 327 328 329 329 330 330 330 330 330 329 329 328 328 327 328 328 328 328 329 329 330 330 331 330 331 332 333 334
269 269 269 268 268 268 270 272 273 275 275 274 273 273 273 273 274 277 280 282 284 286 288 289 287 286 288 293 297 299 301 304 305 307 307 306 306 307 308 310 312 312 311 311 310 311 312 313 316 318 318 318 319 321 324 325 326 327 328 328 329 329 329 329 329 329 329 328 327 327 327 328 328 328 329 329 329 329 329 330 330 330 331 331 331
271 271 271 271 270 271 271 272 274 276 276 275 274 274 274 274 276 278 281 284 285 287 288 287 285 285 288 294 297 299 301 303 306 306 306 306 306 307 308 310 312 312 311 310 310 311 312 314 316 318 318 318 319 322 324 325 326 326 327 328 328 328 328 329 328 328 328 327 327 326 327 327 327 328 328 328 328 328 327 328 328 329 329 330 330
274 275 274 274 273 273 273 274 275 276 276 276 275 274 275 275 277 280 283 284 286 287 287 285 284 285 289 294 296 298 301 304 306 306 305 306 306 307 308 310 311 311 310 309 309 311 313 315 317 317 318 318 320 323 324 324 325 326 327 327 327 327 328 329 328 328 328 327 327 327 326 327 327 327 327 327 326 326 326 326 327 327 328 328 329
277 277 275 274 274 273 274 275 275 275 275 276 276 276 277 278 279 281 282 284 286 286 284 283 283 285 290 294 295 298 301 304 305 305 305 305 306 307 309 310 311 311 309 308 309 311 314 315 316 317 317 319 321 322 323 324 325 326 326 326 326 327 328 328 328 328 328 328 328 327 327 327 327 326 326 326 325 325 326 326 326 327 327 327 328
280 279 277 276 275 275 275 275 274 274 275 276 276 277 277 278 278 279 281 283 284 282 281 281 282 286 291 293 295 298 301 303 305 305 305 305 306 307 309 310 311 310 308 308 310 312 314 315 315 316 317 319 321 322 323 324 325 326 326 326 326 327 327 328 328 329 329 329 328 327 327 326 326 326 325 325 325 325 326 326 326 326 327 327 327
283 283 282 281 278 276 275 275 275 275 276 276 276 276 276 276 277 278 280 280 280 278 279 280 283 287 291 293 296 299 301 303 305 305 304 304 306 307 309 310 311 309 307 308 311 313 314 314 315 316 317 319 321 322 323 324 325 325 325 325 326 326 327 328 329 330 330 329 328 327 326 326 325 325 325 325 325 325 326 326 326 326 327 327 326
286 287 287 286 284 281 278 276 276 276 277 277 278 277 277 278 278 278 276 275 275 277 278 280 284 288 291 294 297 299 301 304 305 304 304 304 306 308 309 310 310 308 308 309 312 314 314 313 315 316 317 319 321 322 323 324 325 325 325 325 325 326 327 328 329 330 330 329 328 327 326 325 325 325 325 325 325 325 325 326 326 326 326 326 325
283 285 286 286 286 285 284 281 279 277 276 275 275 274 274 274 273 270 268 270 274 276 277 281 285 288 291 294 297 299 302 304 304 304 304 305 307 309 310 310 309 308 309 311 313 313 313 313 315 316 317 319 321 323 323 323 324 324 324 325 325 326 327 329 329 330 329 328 327 326 326 325 325 325 325 325 325 325 325 325 325 325 325 325 324
278 281 283 283 284 285 285 284 281 277 274 272 269 268 267 266 264 263 266 271 273 275 278 283 287 289 292 294 296 299 302 304 304 304 304 306 308 309 309 309 309 309 310 312 313 313 312 314 315 316 318 320 321 323 323 323 323 323 324 325 325 326 327 328 329 329 328 327 327 326 326 325 325 325 325 325 325 325 325 325 325 324 324 324 323
277 278 280 280 280 281 282 282 282 280 276 272 267 264 262 258 257 262 267 270 272 276 281 285 288 290 292 293 295 299 302 303 304 304 305 307 308 309 308 309 309 310 311 312 312 312 312 314 316 317 318 320 322 322 322 322 323 323 323 324 325 326 327 328 328 328 328 327 327 326 325 325 325 325 325 325 325 325 325 325 325 324 323 323 322
284 282 281 280 279 279 280 281 282 281 278 273 268 263 257 253 255 262 267 270 274 279 284 287 289 290 291 292 295 299 301 303 304 305 306 307 308 308 308 309 310 310 311 312 312 312 312 314 317 318 319 321 321 321 321 322 322 322 323 323 325 326 327 328 328 328 328 327 326 326 325 325 325 325 325 325 325 325 324 324 324 324 323 322 322
288 285 284 283 282 281 282 283 282 280 277 273 269 263 256 253 258 264 269 273 278 283 286 288 289 290 290 291 294 299 302 304 305 305 306 306 307 308 309 310 311 311 312 312 312 311 313 316 317 318 319 320 320 320 321 321 321 322 323 324 326 327 328 328 328 328 327 326 326 325 325 325 325 325 325 326 325 325 324 324 323 323 323 322 321
286 286 284 283 283 284 285 285 284 281 277 273 268 262 257 257 261 267 272 277 281 284 287 288 288 288 288 290 295 300 303 304 304 305 305 306 307 308 309 311 311 311 312 313 312 313 315 317 317 318 319 319 319 320 320 320 321 322 324 325 327 327 328 328 328 327 327 326 326 325 325 325 326 326 325 325 325 324 324 324 323 323 322 321 321
280 283 284 284 284 285 286 286 285 281 276 270 267 264 263 265 268 272 276 280 283 285 287 287 287 286 287 291 297 302 304 304 304 304 305 306 308 309 310 311 311 312 313 313 313 314 316 317 317 317 318 319 319 320 320 320 322 323 325 327 327 327 328 328 328 327 326 326 326 326 326 326 326 326 325 325 325 325 324 324 323 323 322 321 320
272 276 280 283 284 284 286 285 283 280 275 271 269 269 269 270 272 275 278 281 283 285 286 286 286 286 289 294 300 302 303 303 303 303 305 307 308 309 309 310 311 313 314 313 313 314 317 317 317 317 318 319 319 319 320 321 323 325 327 328 328 328 328 328 327 327 327 327 327 327 326 326 326 326 326 326 325 325 325 324 323 323 322 322 321
267 270 273 277 281 284 285 285 282 277 274 271 269 269 270 272 274 277 279 282 283 284 285 285 285 288 292 298 301 303 302 302 302 304 306 307 308 308 309 311 312 313 314 313 313 315 317 317 317 318 319 319 319 320 321 323 325 327 328 328 328 328 328 328 328 328 328 328 327 327 327 326 326 327 327 326 326 325 325 324 324 323 323 323 322
264 264 266 269 274 279 282 282 279 274 271 269 268 268 271 273 276 277 279 280 280 282 283 285 286 291 296 300 301 302 302 302 303 305 306 306 307 308 310 312 313 314 314 314 315 316 317 318 318 318 319 319 320 321 323 325 326 328 328 329 329 329 328 328 329 329 329 328 328 328 327 327 327 327 327 327 326 326 326 325 325 325 324 324 324
261 259 260 262 267 272 276 279 277 272 267 265 266 267 269 272 274 276 276 276 278 280 282 284 289 294 298 299 300 301 301 302 303 305 305 306 307 310 312 313 313 314 314 315 316 317 318 318 319 319 320 320 321 323 325 326 328 328 329 329 329 329 329 330 330 330 329 329 328 328 328 328 328 328 328 328 328 327 327 327 326 326 327 327 327
264 258 256 258 261 266 270 275 275 270 265 264 266 268 271 274 275 276 275 275 276 279 281 286 291 296 297 298 300 301 301 302 303 304 305 306 309 311 313 313 313 314 315 317 318 319 319 319 320 320 320 321 323 325 326 328 329 330 330 330 330 330 331 331 331 331 330 330 329 330 329 329 329 329 329 329 329 329 329 329 329 329 330 330 331
272 262 255 254 257 262 265 267 271 271 269 270 272 273 276 278 279 277 277 276 275 278 283 288 292 295 297 298 300 301 301 302 303 304 305 308 310 312 313 313 314 315 316 318 319 319 319 320 320 320 321 323 325 327 328 329 330 331 331 331 331 332 332 332 332 332 331 331 331 331 330 330 330 331 331 331 331 331 331 332 332 333 334 335 336
281 273 261 253 253 259 262 260 263 269 271 272 275 278 280 281 281 278 276 275 275 278 284 289 292 295 297 298 299 300 301 302 303 304 306 309 312 313 313 314 315 316 317 318 319 320 321 321 321 321 323 325 327 328 330 331 331 331 332 332 333 333 334 334 333 333 332 333 332 332 332 332 333 333 333 333 334 334 334 335 337 338 340 341 343
284 282 272 259 252 255 262 261 258 263 269 272 276 281 282 281 280 277 274 274 277 281 285 289 293 295 297 297 298 300 301 301 302 305 309 311 313 313 314 315 317 318 318 319 320 321 321 321 321 323 325 327 328 329 331 332 332 332 333 334 335 335 335 334 334 334 334 334 333 333 334 335 335 335 335 336 336 337 338 340 342 345 346 348 351
282 284 282 270 257 253 260 266 261 259 265 271 274 280 283 282 279 277 275 275 279 282 286 290 293 295 296 297 299 300 300 301 304 307 311 312 313 314 315 317 318 318 319 320 321 322 322 322 323 325 326 327 329 331 332 333 333 334 335 336 336 336 336 336 336 336 336 335 335 335 336 337 337 337 338 338 339 341 343 345 348 351 353 358 4
279 281 283 280 267 256 256 266 268 263 261 265 270 276 281 281 278 276 276 277 280 283 287 291 294 295 296 297 298 298 299 303 307 310 312 314 314 315 317 317 318 319 320 321 322 322 322 323 325 326 328 329 331 333 333 334 335 337 337 338 338 338 338 338 338 338 338 337 337 338 338 339 339 340 341 341 343 345 348 352 355 359 5 13 26
276 276 278 282 277 263 255 261 271 269 263 263 268 272 276 279 278 276 276 277 280 284 289 292 294 295 295 296 297 299 302 306 309 311 313 314 315 316 318 318 319 320 321 322 322 322 323 325 326 328 329 332 333 334 335 336 338 339 339 339 339 339 339 339 340 340 339 339 339 340 341 341 342 343 344 345 348 351 355 360 5 13 24 38 50
271 274 276 280 281 270 257 256 267 273 266 262 264 268 273 278 278 274 273 276 280 286 291 293 293 294 295 296 298 301 305 308 310 312 314 315 316 317 319 319 319 320 321 322 323 323 325 327 328 330 332 334 334 335 337 338 340 341 341 341 341 341 341 342 342 342 341 341 342 343 344 344 346 347 349 351 355 360 6 13 24 35 47 57 63
267 273 276 277 281 274 259 253 262 274 270 263 264 269 273 275 274 271 273 278 283 289 292 292 292 293 295 297 300 304 307 310 312 314 315 316 317 318 319 319 320 321 322 322 324 326 328 329 330 332 334 335 336 337 339 340 341 343 343 342 342 343 343 344 344 344 343 344 345 346 347 349 351 353 356 0 6 13 22 33 44 53 60 63 65
264 270 275 276 279 275 261 254 261 272 272 264 264 269 271 271 272 272 274 280 286 290 291 291 291 294 296 299 303 306 309 311 314 315 316 317 318 318 318 319 320 322 322 324 326 328 329 331 333 334 335 336 338 339 341 342 343 344 344 344 344 345 346 346 347 346 346 346 348 350 352 355 358 2 7 13 21 31 41 50 57 61 62 62 61
262 267 272 275 276 274 264 258 262 272 272 264 263 267 268 270 271 273 276 283 288 289 289 290 292 295 298 301 305 308 310 313 316 316 317 318 318 318 318 320 321 322 323 326 328 330 331 333 335 336 336 338 340 342 343 344 345 345 345 345 346 347 348 349 349 348 348 350 352 355 358 2 7 13 20 28 37 46 53 57 59 60 59 58 56
261 265 270 273 274 273 266 261 265 274 274 266 263 265 267 268 270 273 278 284 287 287 289 291 293 296 300 303 306 309 312 315 317 318 318 318 317 317 319 320 321 323 325 328 331 332 333 335 336 337 338 340 342 344 345 346 347 346 347 347 348 349 351 352 351 351 352 354 357 0 5 11 17 25 32 40 47 53 56 57 57 55 53 52 51
261 264 268 271 273 273 268 264 268 276 275 265 259 262 264 265 268 273 280 285 287 287 289 292 294 297 301 305 308 311 314 316 318 319 318 317 317 318 319 320 322 325 328 331 332 334 335 336 337 338 340 342 344 346 347 348 348 348 348 349 350 352 354 354 354 354 356 359 2 7 13 20 28 35 42 47 51 53 53 52 51 49 48 47 46
262 265 268 270 271 271 268 265 270 276 272 261 256 259 261 263 268 276 282 286 287 288 290 292 294 298 303 307 310 314 316 318 319 318 317 316 317 318 319 321 324 327 330 332 334 335 336 337 339 340 342 344 346 348 349 349 349 349 349 351 352 354 356 357 358 359 1 5 9 14 21 28 35 41 46 48 49 49 47 46 44 44 43 43 42
262 265 267 266 266 264 263 265 272 275 266 254 252 255 258 263 272 280 284 285 286 287 289 292 296 300 305 309 313 316 318 319 319 317 316 316 317 318 320 323 327 329 332 334 335 336 337 339 340 342 344 346 348 349 350 350 350 350 351 352 354 356 358 360 2 4 7 12 16 22 28 34 39 42 44 44 43 42 41 40 40 40 39 39 38
262 264 263 260 258 257 261 268 273 266 253 247 249 254 260 269 278 282 283 284 285 287 289 293 299 304 308 312 315 318 319 319 317 315 316 316 316 318 322 326 328 331 333 335 336 337 339 340 342 344 346 348 350 351 351 350 350 351 352 353 355 357 0 3 5 9 13 18 22 27 31 35 37 39 39 38 37 36 35 35 36 36 36 35 34
Height
5663 5663 5662 5662 5661 5661 5660 5660 5659 5657 5656 5655 5654 5653 5651 5649 5647 5645 5644 5643 5641 5639 5636 5634 5631 5628 5626 5624 5621 5618 5615 5612 5609 5605 5601 5597 5594 5590 5587 5583 5579 5575 5571 5566 5561 5557 5553 5550 5546 5542 5537 5532 5527 5523 5517 5512 5507 5501 5496 5490 5484 5480 5476 5471 5468 5464 5455 5445 5440 5435 5430 5426 5420 5415 5412 5407 5400 5393 5387 5381 5376 5370 5365 5361 5355
5659 5658 5658 5657 5656 5656 5655 5655 5654 5652 5651 5650 5649 5648 5646 5644 5642 5640 5639 5638 5636 5634 5632 5630 5627 5624 5622 5619 5616 5614 5611 5608 5604 5600 5596 5593 5589 5586 5582 5578 5574 5570 5566 5561 5556 5552 5548 5544 5541 5536 5532 5527 5522 5518 5512 5506 5501 5496 5490 5485 5479 5473 5469 5465 5460 5457 5453 5444 5436 5431 5426 5421 5416 5411 5407 5403 5398 5392 5385 5379 5373 5366 5360 5355 5351
5654 5654 5653 5652 5651 5651 5650 5650 5648 5647 5646 5645 5644 5642 5640 5639 5637 5635 5634 5633 5631 5629 5627 5625 5623 5620 5618 5615 5612 5609 5606 5603 5600 5596 5592 5588 5584 5581 5577 5574 5570 5565 5561 5556 5551 5547 5543 5539 5535 5531 5526 5522 5517 5512 5507 5501 5495 5490 5484 5479 5474 5468 5462 5458 5453 5449 5447 5442 5433 5427 5423 5418 5412 5407 5403 5398 5393 5388 5383 5377 5371 5364 5357 5351 5345
5649 5649 5648 5647 5646 5646 5645 5644 5643 5642 5641 5640 5638 5636 5635 5633 5631 5630 5629 5627 5626 5624 5622 5621 5619 5616 5613 5610 5607 5605 5602 5598 5595 5591 5587 5583 5579 5576 5572 5569 5565 5561 5556 5551 5546 5542 5538 5534 5530 5526 5521 5516 5512 5506 5501 5495 5489 5484 5480 5474 5469 5464 5457 5452 5447 5442 5440 5437 5431 5423 5418 5414 5409 5402 5398 5395 5390 5383 5378 5374 5368 5362 5355 5347 5339
5644 5643 5642 5641 5641 5641 5640 5639 5638 5637 5635 5634 5632 5630 5629 5628 5626 5625 5624 5622 5621 5619 5618 5616 5614 5611 5608 5606 5603 5600 5597 5594 5590 5586 5582 5578 5575 5571 5568 5564 5560 5556 5551 5546 5542 5537 5533 5529 5524 5520 5516 5511 5506 5501 5495 5490 5485 5480 5475 5470 5464 5458 5453 5447 5441 5436 5432 5429 5426 5420 5413 5409 5405 5398 5392 5390 5387 5382 5375 5369 5363 5358 5353 5345 5336
5638 5637 5637 5636 5636 5635 5635 5634 5633 5631 5629 5627 5626 5625 5624 5622 5621 5620 5618 5617 5616 5614 5613 5611 5609 5606 5604 5601 5598 5595 5592 5589 5585 5581 5577 5573 5570 5566 5563 5559 5555 5551 5546 5541 5537 5532 5528 5524 5520 5515 5511 5506 5501 5496 5490 5484 5479 5475 5470 5465 5459 5453 5448 5442 5436 5431 5426 5422 5419 5415 5410 5404 5400 5395 5388 5384 5381 5377 5373 5368 5361 5352 5347 5342 5334
5632 5632 5631 5631 5630 5630 5629 5628 5626 5625 5623 5621 5620 5619 5618 5617 5616 5614 5613 5612 5610 5609 5608 5606 5604 5601 5599 5596 5594 5590 5587 5584 5580 5576 5572 5568 5565 5561 5558 5555 5550 5546 5541 5536 5532 5527 5523 5519 5515 5510 5505 5501 5496 5490 5485 5479 5473 5469 5464 5459 5454 5449 5443 5438 5432 5427 5422 5418 5412 5409 5405 5399 5394 5390 5385 5379 5374 5368 5364 5362 5359 5351 5343 5336 5329
5626 5626 5625 5625 5625 5624 5623 5621 5620 5618 5617 5615 5614 5614 5613 5612 5610 5608 5608 5607 5605 5604 5603 5601 5599 5596 5594 5591 5588 5585 5582 5578 5575 5571 5567 5564 5560 5557 5553 5550 5545 5541 5536 5532 5526 5522 5518 5514 5509 5505 5500 5496 5491 5485 5480 5474 5468 5463 5458 5454 5450 5445 5440 5434 5429 5423 5418 5413 5408 5403 5399 5394 5389 5384 5380 5374 5370 5364 5357 5352 5349 5345 5340 5332 5322
5620 5620 5619 5619 5618 5617 5616 5614 5613 5611 5610 5610 5609 5608 5607 5605 5604 5603 5602 5601 5600 5599 5597 5596 5594 5591 5589 5586 5583 5580 5577 5573 5570 5566 5562 5559 5555 5552 5548 5544 5540 5536 5531 5527 5522 5517 5513 5509 5505 5500 5496 5491 5486 5480 5474 5469 5464 5458 5453 5449 5444 5440 5436 5430 5424 5419 5414 5408 5403 5398 5394 5389 5383 5379 5375 5369 5364 5358 5352 5346 5341 5336 5332 5328 5318
5612 5612 5612 5611 5610 5609 5608 5607 5605 5605 5604 5603 5603 5602 5601 5599 5598 5597 5596 5596 5594 5593 5592 5591 5589 5586 5584 5581 5578 5575 5572 5568 5565 5561 5557 5554 5550 5547 5543 5539 5535 5531 5526 5521 5517 5513 5508 5504 5501 5496 5491 5486 5480 5475 5469 5464 5458 5453 5448 5444 5440 5435 5431 5426 5420 5413 5408 5403 5397 5392 5389 5385 5377 5372 5368 5364 5357 5351 5345 5339 5335 5330 5324 5320 5315
5604 5604 5604 5603 5602 5601 5600 5599 5598 5598 5597 5597 5596 5595 5594 5592 5592 5591 5591 5590 5589 5588 5587 5586 5583 5581 5578 5576 5573 5570 5566 5563 5560 5556 5552 5549 5545 5542 5538 5534 5530 5526 5521 5517 5512 5508 5504 5500 5497 5492 5487 5482 5476 5470 5465 5459 5453 5448 5443 5438 5434 5429 5425 5420 5415 5408 5402 5398 5392 5385 5382 5379 5373 5365 5361 5358 5352 5345 5339 5332 5326 5322 5316 5310 5306
5597 5597 5596 5595 5594 5594 5593 5592 5591 5591 5590 5590 5588 5587 5586 5586 5586 5585 5585 5584 5583 5582 5582 5580 5578 5575 5573 5570 5567 5564 5561 5558 5555 5551 5547 5544 5540 5537 5533 5529 5525 5521 5516 5512 5507 5503 5499 5495 5491 5488 5483 5477 5471 5466 5460 5454 5448 5443 5438 5433 5428 5422 5417 5412 5407 5402 5396 5391 5387 5380 5374 5372 5367 5359 5353 5351 5346 5340 5333 5326 5319 5314 5309 5302 5296
5590 5590 5589 5588 5587 5587 5586 5585 5584 5584 5583 5582 5581 5580 5580 5580 5580 5580 5579 5578 5577 5577 5576 5574 5572 5570 5568 5565 5562 5559 5556 5553 5549 5546 5542 5539 5535 5532 5528 5524 5521 5516 5511 5507 5502 5498 5494 5489 5486 5482 5478 5472 5467 5462 5456 5450 5444 5439 5433 5428 5422 5417 5411 5405 5399 5394 5389 5384 5381 5375 5368 5364 5361 5354 5346 5342 5339 5333 5328 5321 5314 5309 5303 5296 5289
5583 5583 5582 5581 5580 5579 5579 5578 5578 5577 5576 5575 5574 5574 5574 5574 5574 5574 5573 5573 5572 5572 5571 5569 5567 5565 5562 5559 5557 5554 5551 5548 5545 5541 5537 5534 5530 5526 5523 5519 5516 5511 5507 5502 5497 5493 5489 5485 5481 5477 5472 5468 5463 5458 5453 5447 5441 5435 5429 5423 5417 5411 5405 5399 5393 5387 5382 5377 5373 5369 5362 5356 5352 5347 5340 5334 5330 5325 5321 5316 5310 5304 5298 5290 5281
5576 5576 5576 5575 5573 5572 5572 5571 5571 5570 5569 5568 5567 5568 5568 5568 5568 5568 5567 5567 5567 5566 5565 5563 5562 5559 5557 5554 5551 5548 5546 5543 5539 5536 5532 5529 5525 5521 5518 5515 5511 5506 5502 5497 5493 5488 5484 5480 5476 5472 5467 5463 5459 5454 5450 5444 5437 5432 5425 5419 5412 5405 5399 5393 5388 5382 5376 5371 5366 5361 5356 5349 5344 5339 5334 5329 5324 5319 5314 5307 5301 5296 5290 5284 5275
5568 5568 5569 5568 5567 5566 5565 5565 5564 5563 5562 5561 5561 5562 5562 5562 5562 5562 5561 5561 5561 5561 5559 5558 5556 5554 5551 5549 5546 5543 5541 5538 5534 5531 5527 5524 5520 5517 5513 5510 5506 5501 5497 5493 5488 5484 5480 5475 5471 5467 5463 5458 5454 5450 5445 5439 5433 5428 5422 5415 5409 5402 5395 5389 5383 5377 5371 5365 5359 5354 5350 5344 5339 5334 5328 5322 5316 5311 5305 5299 5292 5286 5281 5276 5271
5560 5561 5562 5562 5561 5559 5558 5557 5557 5556 5556 5556 5555 5556 5556 5555 5555 5555 5556 5556 5556 5555 5553 5552 5551 5549 5546 5544 5541 5538 5536 5533 5529 5525 5522 5519 5515 5511 5508 5504 5500 5496 5492 5487 5483 5479 5475 5471 5466 5463 5458 5454 5449 5445 5440 5434 5429 5423 5418 5413 5407 5401 5394 5388 5381 5374 5367 5360 5354 5349 5343 5338 5332 5326 5320 5313 5306 5301 5296 5291 5285 5278 5273 5268 5264
5553 5554 5554 5554 5553 5552 5551 5551 5551 5550 5550 5550 5550 5550 5549 5549 5549 5549 5549 5550 5549 5548 5547 5546 5545 5543 5541 5539 5536 5533 5531 5528 5524 5521 5517 5514 5510 5506 5503 5499 5495 5491 5486 5482 5478 5474 5470 5465 5461 5458 5454 5449 5444 5439 5434 5429 5424 5418 5414 5409 5404 5398 5393 5387 5381 5374 5366 5359 5351 5345 5338 5332 5326 5320 5313 5306 5299 5293 5287 5283 5277 5271 5266 5260 5255
5548 5548 5548 5547 5547 5546 5546 5545 5546 5545 5545 5544 5544 5544 5543 5543 5543 5543 5543 5543 5543 5542 5541 5541 5539 5538 5536 5533 5531 5528 5525 5522 5519 5516 5512 5509 5505 5501 5498 5493 5489 5485 5481 5476 5472 5468 5464 5459 5456 5453 5449 5444 5439 5433 5428 5423 5418 5413 5408 5404 5400 5395 5389 5383 5377 5371 5365 5358 5350 5343 5335 5328 5321 5315 5309 5302 5295 5288 5282 5276 5270 5265 5260 5254 5247
5542 5542 5542 5541 5541 5540 5540 5540 5540 5540 5539 5538 5538 5538 5537 5537 5537 5537 5537 5537 5537 5536 5536 5535 5534 5532 5531 5528 5526 5523 5520 5517 5514 5511 5507 5504 5500 5496 5492 5488 5484 5480 5476 5471 5467 5463 5458 5454 5451 5448 5443 5438 5433 5428 5423 5418 5413 5408 5403 5398 5394 5390 5384 5378 5372 5366 5360 5354 5347 5339 5332 5325 5318 5312 5306 5300 5293 5286 5279 5271 5265 5258 5252 5247 5241
5536 5536 5536 5535 5535 5534 5534 5534 5534 5534 5533 5532 5532 5532 5532 5532 5531 5532 5532 5532 5531 5531 5530 5530 5529 5527 5525 5523 5521 5518 5515 5512 5509 5506 5502 5499 5495 5491 5487 5483 5479 5475 5470 5466 5462 5457 5453 5449 5446 5442 5438 5433 5428 5423 5418 5413 5408 5403 5397 5392 5388 5383 5378 5373 5367 5361 5354 5348 5341 5334 5327 5321 5315 5308 5302 5295 5288 5281 5274 5266 5259 5252 5244 5238 5232
5530 5530 5530 5529 5529 5529 5529 5529 5528 5528 5527 5527 5526 5526 5526 5526 5526 5526 5527 5527 5526 5525 5525 5524 5523 5522 5520 5518 5515 5513 5510 5507 5504 5501 5497 5494 5490 5486 5482 5478 5474 5470 5466 5461 5457 5453 5448 5444 5441 5437 5433 5428 5423 5418 5413 5408 5403 5397 5392 5387 5382 5377 5372 5367 5361 5355 5348 5341 5335 5329 5322 5316 5310 5303 5296 5290 5282 5275 5267 5259 5251 5244 5237 5228 5221
5525 5525 5524 5523 5523 5523 5523 5523 5522 5522 5521 5521 5521 5521 5521 5521 5521 5521 5521 5521 5520 5520 5520 5519 5518 5517 5515 5513 5510 5508 5505 5502 5499 5496 5492 5489 5485 5481 5476 5473 5469 5465 5461 5456 5452 5448 5444 5440 5436 5432 5428 5423 5418 5413 5407 5402 5397 5392 5386 5381 5376 5371 5366 5360 5354 5348 5342 5335 5329 5323 5316 5310 5304 5298 5291 5284 5276 5269 5261 5254 5245 5237 5229 5221 5212
5520 5520 5519 5518 5517 5517 5517 5517 5517 5516 5516 5516 5516 5516 5515 5515 5515 5516 5515 5515 5515 5515 5515 5514 5513 5512 5510 5507 5505 5503 5500 5498 5494 5491 5488 5484 5480 5476 5472 5468 5465 5461 5456 5452 5447 5443 5439 5435 5432 5428 5423 5418 5413 5408 5402 5397 5392 5387 5381 5376 5371 5365 5359 5353 5347 5341 5336 5329 5323 5317 5311 5304 5297 5291 5284 5277 5270 5263 5256 5248 5240 5231 5223 5216 5207
5516 5515 5514 5513 5512 5512 5511 5511 5511 5511 5510 5510 5510 5510 5510 5509 5509 5510 5510 5510 5511 5510 5510 5509 5508 5506 5504 5502 5500 5498 5496 5493 5490 5486 5482 5479 5474 5470 5467 5464 5460 5456 5452 5447 5443 5439 5435 5431 5427 5423 5419 5414 5409 5403 5397 5392 5387 5382 5376 5371 5365 5359 5353 5347 5341 5336 5330 5324 5318 5311 5305 5298 5291 5283 5277 5269 5262 5255 5249 5242 5234 5225 5217 5211 5202
5512 5511 5510 5509 5508 5507 5507 5507 5506 5505 5505 5505 5504 5504 5504 5504 5504 5505 5505 5506 5506 5505 5504 5504 5503 5501 5499 5498 5495 5493 5491 5488 5485 5481 5477 5473 5469 5466 5462 5459 5455 5451 5447 5443 5439 5435 5431 5427 5424 5419 5414 5409 5404 5399 5394 5388 5383 5377 5371 5366 5360 5354 5348 5342 5336 5330 5324 5318 5312 5305 5298 5291 5284 5276 5269 5261 5254 5246 5240 5234 5227 5218 5210 5203 5197
5507 5507 5506 5505 5504 5503 5503 5502 5502 5501 5501 5500 5499 5499 5499 5499 5500 5501 5501 5501 5501 5500 5499 5499 5497 5496 5495 5493 5491 5489 5486 5483 5479 5476 5472 5468 5465 5461 5458 5454 5450 5447 5443 5439 5435 5431 5426 5423 5420 5415 5410 5405 5400 5395 5390 5385 5379 5373 5367 5362 5356 5350 5343 5337 5330 5324 5318 5312 5305 5298 5291 5284 5277 5270 5262 5254 5245 5237 5230 5223 5217 5210 5201 5194 5189
5502 5501 5501 5500 5499 5499 5499 5498 5498 5497 5496 5496 5495 5495 5495 5495 5496 5496 5496 5496 5495 5495 5495 5494 5492 5491 5490 5488 5486 5484 5481 5477 5474 5470 5467 5463 5460 5457 5454 5450 5446 5442 5439 5435 5431 5427 5423 5419 5415 5410 5406 5401 5396 5391 5386 5381 5375 5370 5364 5358 5352 5345 5338 5331 5325 5317 5311 5304 5298 5291 5285 5278 5270 5262 5254 5246 5237 5228 5220 5213 5206 5199 5192 5185 5178
5498 5497 5496 5495 5495 5494 5494 5494 5493 5492 5492 5492 5491 5491 5491 5491 5491 5491 5491 5491 5490 5490 5490 5489 5488 5487 5485 5484 5482 5480 5476 5472 5468 5465 5462 5459 5456 5452 5449 5446 5442 5438 5435 5431 5427 5422 5419 5415 5411 5406 5401 5397 5393 5388 5383 5377 5372 5366 5360 5354 5347 5340 5333 5326 5319 5312 5305 5298 5291 5284 5277 5270 5263 5254 5246 5238 5229 5219 5210 5203 5196 5189 5182 5175 5168
5494 5493 5492 5491 5490 5489 5489 5489 5488 5488 5488 5487 5487 5487 5486 5486 5486 5486 5486 5486 5486 5486 5485 5484 5483 5482 5481 5479 5477 5475 5471 5467 5464 5460 5457 5455 5452 5448 5445 5441 5437 5434 5430 5427 5423 5419 5415 5411 5407 5402 5398 5394 5390 5385 5379 5374 5369 5363 5357 5349 5342 5335 5328 5321 5314 5307 5300 5293 5285 5278 5270 5262 5255 5246 5237 5229 5221 5212 5202 5193 5185 5178 5171 5164 5157
5490 5489 5488 5487 5486 5485 5485 5484 5484 5484 5483 5483 5482 5482 5482 5482 5482 5482 5482 5482 5481 5481 5481 5480 5479 5477 5476 5474 5472 5469 5466 5462 5459 5456 5453 5450 5447 5444 5440 5437 5433 5430 5426 5423 5419 5415 5412 5408 5403 5399 5395 5390 5386 5381 5376 5371 5365 5359 5353 5346 5338 5330 5324 5317 5310 5303 5295 5288 5280 5271 5263 5254 5246 5237 5229 5220 5212 5203 5194 5184 5176 5168 5160 5152 5145
5485 5484 5484 5483 5483 5482 5481 5480 5480 5480 5479 5479 5478 5478 5478 5478 5478 5478 5477 5477 5477 5477 5476 5476 5474 5472 5471 5469 5467 5464 5461 5458 5455 5452 5449 5446 5442 5439 5436 5432 5429 5425 5422 5418 5415 5411 5408 5405 5400 5396 5391 5387 5382 5377 5372 5367 5360 5354 5348 5342 5335 5327 5319 5312 5306 5298 5290 5282 5273 5265 5256 5246 5238 5229 5220 5210 5202 5193 5185 5175 5166 5157 5149 5141 5133
5479 5479 5479 5479 5479 5478 5477 5476 5476 5476 5475 5475 5474 5474 5474 5474 5474 5473 5473 5473 5473 5473 5472 5471 5469 5468 5466 5464 5462 5459 5456 5454 5451 5448 5445 5442 5438 5435 5431 5428 5425 5421 5418 5415 5411 5408 5404 5401 5396 5392 5388 5383 5379 5373 5368 5362 5356 5349 5343 5337 5330 5323 5315 5308 5301 5293 5284 5275 5266 5257 5248 5239 5229 5220 5211 5201 5191 5182 5173 5164 5155 5146 5138 5131 5123
5473 5473 5474 5474 5474 5473 5473 5472 5472 5471 5471 5471 5470 5470 5470 5469 5469 5469 5469 5469 5469 5469 5468 5466 5464 5463 5461 5459 5457 5455 5452 5450 5447 5444 5441 5437 5434 5430 5427 5424 5421 5418 5414 5411 5408 5404 5401 5397 5392 5388 5384 5379 5374 5369 5364 5357 5351 5345 5339 5332 5325 5319 5311 5303 5295 5287 5278 5269 5260 5250 5241 5230 5220 5211 5202 5192 5182 5172 5163 5153 5144 5136 5128 5120 5114
5467 5467 5468 5468 5469 5468 5468 5468 5467 5467 5466 5466 5466 5465 5465 5465 5465 5465 5465 5465 5465 5464 5463 5461 5460 5459 5457 5455 5453 5451 5448 5446 5443 5440 5436 5433 5429 5426 5423 5420 5417 5414 5411 5407 5404 5401 5397 5393 5389 5384 5380 5375 5370 5365 5359 5354 5348 5341 5335 5328 5321 5314 5307 5299 5291 5282 5273 5263 5253 5243 5233 5223 5212 5203 5193 5183 5173 5163 5153 5144 5134 5125 5118 5111 5105
5461 5462 5462 5463 5463 5463 5463 5463 5463 5462 5462 5462 5461 5461 5461 5461 5461 5461 5461 5461 5460 5459 5458 5457 5456 5454 5453 5451 5449 5447 5444 5442 5439 5435 5432 5428 5425 5422 5419 5416 5413 5410 5407 5404 5401 5397 5393 5389 5385 5381 5376 5372 5367 5361 5355 5350 5344 5337 5331 5324 5317 5310 5303 5294 5286 5277 5267 5257 5247 5236 5226 5216 5206 5195 5185 5175 5164 5153 5143 5134 5125 5117 5109 5103 5098
5455 5456 5457 5458 5458 5458 5458 5458 5458 5457 5457 5457 5457 5457 5457 5457 5457 5456 5456 5456 5456 5454 5453 5453 5452 5450 5448 5446 5445 5443 5440 5437 5434 5431 5427 5424 5422 5419 5416 5412 5409 5406 5403 5400 5397 5393 5390 5385 5381 5377 5373 5368 5362 5357 5351 5346 5340 5334 5327 5320 5313 5305 5298 5289 5280 5271 5261 5251 5241 5230 5220 5209 5198 5187 5176 5166 5155 5145 5135 5126 5118 5111 5104 5098 5093
5450 5450 5451 5452 5453 5453 5453 5453 5453 5452 5452 5452 5453 5453 5453 5452 5452 5452 5452 5451 5451 5450 5449 5449 5447 5446 5444 5442 5440 5438 5436 5433 5429 5426 5423 5421 5418 5415 5412 5409 5405 5402 5399 5396 5393 5390 5386 5382 5378 5373 5369 5364 5358 5353 5348 5342 5336 5330 5324 5317 5309 5301 5293 5285 5275 5266 5256 5245 5235 5224 5213 5202 5191 5179 5168 5158 5148 5138 5129 5120 5113 5107 5101 5095 5090
5446 5445 5446 5447 5448 5448 5447 5447 5447 5448 5447 5447 5448 5448 5448 5448 5448 5448 5447 5447 5446 5446 5445 5445 5443 5442 5440 5438 5436 5434 5431 5428 5425 5422 5420 5417 5414 5411 5408 5405 5402 5399 5396 5392 5389 5386 5382 5378 5374 5370 5365 5360 5355 5350 5345 5339 5333 5327 5320 5313 5306 5298 5289 5280 5271 5261 5251 5240 5229 5218 5207 5196 5184 5172 5162 5151 5142 5133 5124 5117 5110 5104 5099 5094 5090
5441 5441 5441 5441 5442 5442 5442 5442 5442 5443 5442 5442 5442 5443 5443 5443 5443 5443 5443 5442 5442 5442 5441 5440 5439 5437 5436 5434 5432 5429 5426 5423 5421 5418 5416 5413 5410 5407 5404 5401 5398 5395 5392 5389 5386 5382 5379 5375 5370 5366 5361 5357 5352 5347 5342 5336 5330 5324 5317 5309 5302 5294 5285 5276 5266 5256 5246 5235 5224 5212 5201 5190 5179 5168 5157 5147 5138 5129 5122 5115 5109 5104 5099 5095 5092
5437 5436 5436 5436 5436 5437 5437 5437 5437 5437 5437 5437 5437 5438 5439 5439 5438 5438 5438 5438 5438 5438 5437 5436 5435 5433 5431 5429 5428 5425 5422 5419 5417 5415 5412 5409 5407 5404 5401 5398 5395 5392 5389 5386 5382 5379 5375 5371 5367 5363 5359 5354 5349 5344 5339 5333 5327 5320 5313 5306 5298 5290 5281 5272 5262 5252 5242 5231 5219 5208 5196 5185 5174 5164 5154 5145 5136 5128 5121 5115 5110 5105 5101 5098 5095
5431 5431 5431 5431 5431 5432 5432 5432 5432 5432 5432 5433 5433 5433 5433 5434 5434 5434 5434 5434 5434 5433 5433 5432 5431 5429 5427 5425 5423 5421 5418 5416 5413 5411 5408 5406 5403 5400 5397 5395 5392 5389 5386 5383 5379 5376 5372 5368 5364 5360 5356 5351 5346 5341 5336 5330 5324 5317 5311 5303 5295 5287 5278 5269 5259 5249 5239 5227 5216 5204 5193 5182 5171 5161 5152 5143 5136 5129 5122 5117 5112 5108 5105 5102 5100
5426 5426 5426 5426 5426 5426 5426 5427 5428 5428 5428 5428 5428 5428 5429 5429 5430 5430 5430 5430 5430 5429 5429 5428 5427 5425 5423 5421 5419 5417 5414 5412 5410 5407 5405 5402 5400 5397 5394 5391 5388 5386 5383 5379 5376 5373 5369 5365 5361 5357 5353 5348 5343 5338 5333 5327 5321 5315 5308 5300 5292 5284 5275 5266 5256 5246 5236 5225 5213 5201 5190 5180 5170 5160 5151 5144 5137 5130 5125 5120 5116 5113 5111 5109 5108
5420 5421 5421 5421 5421 5421 5421 5422 5423 5423 5423 5423 5424 5424 5425 5425 5426 5426 5426 5426 5426 5426 5425 5424 5422 5421 5419 5417 5415 5413 5411 5408 5406 5404 5401 5399 5396 5393 5391 5388 5385 5382 5379 5376 5373 5370 5366 5362 5358 5354 5349 5345 5340 5335 5330 5324 5318 5312 5305 5298 5290 5281 5272 5264 5255 5245 5234 5223 5211 5200 5190 5179 5170 5161 5153 5145 5139 5134 5129 5125 5122 5120 5118 5117 5116
5416 5416 5416 5416 5417 5417 5417 5417 5418 5419 5419 5420 5420 5420 5421 5421 5422 5422 5422 5422 5422 5422 5421 5420 5418 5416 5415 5413 5411 5409 5407 5405 5403 5400 5398 5395 5393 5390 5388 5385 5382 5379 5376 5373 5370 5367 5363 5359 5355 5351 5347 5342 5338 5333 5327 5321 5315 5309 5302 5295 5287 5279 5271 5262 5253 5243 5232 5222 5211 5200 5190 5180 5171 5163 5156 5149 5144 5139 5136 5133 5130 5128 5127 5125 5124
5411 5411 5412 5412 5412 5413 5413 5413 5414 5415 5415 5416 5416 5416 5417 5418 5418 5419 5419 5419 5419 5418 5417 5416 5414 5412 5411 5409 5407 5405 5403 5401 5399 5397 5394 5392 5389 5387 5385 5382 5379 5376 5373 5370 5367 5364 5360 5356 5353 5349 5344 5340 5335 5330 5325 5319 5313 5306 5300 5293 5285 5277 5270 5261 5252 5242 5232 5221 5211 5201 5192 5183 5174 5167 5160 5155 5151 5147 5144 5142 5139 5137 5135 5133 5131
5406 5407 5407 5407 5408 5409 5409 5409 5410 5411 5412 5412 5412 5413 5413 5414 5415 5415 5416 5416 5415 5414 5413 5412 5410 5409 5407 5405 5404 5402 5400 5398 5395 5393 5391 5389 5386 5384 5382 5379 5376 5373 5370 5367 5364 5361 5357 5354 5350 5346 5342 5338 5333 5328 5322 5317 5311 5304 5298 5291 5283 5276 5269 5261 5252 5242 5232 5222 5212 5203 5195 5187 5180 5173 5168 5163 5160 5156 5153 5150 5148 5146 5143 5141 5138
5402 5402 5403 5403 5404 5404 5405 5406 5407 5407 5408 5408 5409 5410 5410 5411 5412 5412 5412 5412 5411 5410 5409 5408 5407 5405 5404 5402 5400 5398 5396 5394 5392 5390 5388 5386 5383 5381 5379 5376 5373 5370 5367 5365 5361 5358 5355 5351 5348 5344 5340 5335 5330 5325 5320 5314 5309 5303 5296 5289 5282 5276 5269 5261 5253 5244 5234 5224 5215 5207 5199 5192 5186 5181 5176 5172 5168 5165 5162 5159 5156 5153 5150 5147 5145
5398 5398 5399 5399 5400 5400 5401 5402 5403 5404 5405 5405 5406 5407 5407 5408 5409 5409 5409 5408 5407 5407 5406 5405 5403 5402 5400 5398 5396 5395 5393 5391 5389 5387 5385 5383 5381 5378 5376 5373 5370 5367 5365 5362 5359 5356 5352 5349 5345 5341 5337 5333 5328 5323 5318 5313 5307 5301 5295 5288 5282 5276 5269 5263 5255 5246 5236 5227 5219 5212 5205 5199 5194 5189 5184 5180 5177 5173 5170 5166 5163 5160 5157 5154 5151
5394 5394 5394 5395 5396 5397 5398 5399 5400 5401 5401 5402 5403 5404 5405 5405 5406 5406 5405 5405 5404 5403 5402 5401 5400 5398 5396 5394 5393 5391 5389 5387 5386 5384 5382 5380 5378 5375 5373 5370 5367 5365 5362 5359 5356 5353 5350 5346 5343 5339 5335 5331 5326 5321 5316 5311 5306 5300 5294 5287 5282 5276 5271 5264 5256 5248 5239 5232 5224 5217 5211 5206 5201 5196 5192 5188 5184 5180 5176 5173 5169 5166 5162 5159 5156
5389 5390 5390 5391 5392 5394 5395 5396 5397 5397 5398 5399 5400 5401 5402 5402 5402 5402 5402 5401 5400 5400 5399 5398 5396 5394 5393 5391 5389 5387 5386 5384 5383 5381 5379 5377 5375 5372 5370 5367 5365 5362 5360 5357 5354 5351 5347 5344 5340 5337 5333 5328 5324 5319 5315 5310 5305 5299 5293 5287 5282 5277 5271 5265 5258 5251 5243 5237 5230 5223 5218 5212 5207 5203 5198 5194 5190 5186 5182 5178 5175 5171 5168 5165 5162